www.pogodaiklimat.ru

Погода и климат >> Архив погоды >> Россия >> Нижегородская область >> Лысково


ПОГОДА в Лысково

  • Прогноз погоды в Лысково
  • Монитор погоды в Лысково
  • Климат города

АРХИВ ПОГОДЫ в Лысково

Время (UTC), дата Ветер
(напр.,м/с)
 
Видим.   Явления Облачность Т
(С)
Тd
(С)
f
(%)
Тe
(С)
Тes
(С)
Комфортность P
(гПа)
Po
(гПа)
Тmin
(С)
Tmax
(С)
R
(мм)
R24
(мм)
S
(см)
03 14.10 штиль 0
{1}
20 км 9/6 600 м
[Sc Ac lent]
+5.2 +4.5 95 +4 +4 1024.4 1009.0 +5.1 1
06 14.10 штиль 0
{2}
20 км 9/8 600 м
[Sc Ac lent]
+6.2 +5.1 93 +5 +5 1025.1 1009.8 +4.8
09 14.10 С 1-2
{2}
20 км 9/5 600 м
[Sc Ac As]
+8.5 +5.5 81 +8 +9 1024.9 1009.7
12 14.10 СЗ 1-2
{3}
20 км 9/8 600 м
[Sc Ac As]
+9.0 +5.0 76 +8 +9 1024.1 1008.9
15 14.10 штиль 0
{2}
10 км слабый дождь 10/10 300 м
[Frnb]
+8.0 +7.0 93 +7 +7 1023.3 1008.1 +9.0 0.9
18 14.10 Ю 1-1
{3}
4000 м слабый дождь 10/10 200 м
[Frnb Ns]
+7.8 +6.7 93 +7 +7 1022.3 1007.1
21 14.10 Ю 1-2
{3}
10 км слабый дождь 10/10 300 м
[Frnb]
+8.2 +7.4 95 +7 +7 1020.8 1005.7
00 15.10 ЮЗ 1-2
{3}
2000 м морось {дождь} 10/10 300 м
[St]
+9.0 +8.4 96 +8 +8 1020.8 1005.7
03 15.10 З 2-4
{4}
2000 м слабая морось 10/10 200 м
[St]
+10.3 +9.7 96 +9 +9 1020.7 1005.7 +7.3 4
06 15.10 З 2-5
{5}
1000 м слабая морось 10/10 100 м
[St]
+11.4 +11.0 97 +10 +10 1021.2 1006.2
09 15.10 З 3-5
{5}
4000 м слабая морось 10/10 200 м
[St]
+12.2 +11.2 94 +11 +11 1022.0 1007.1
12 15.10 З 2-3
{6}
10 км {морось} 3/3 600 м
[Sc]
+14.3 +12.1 87 +14 +15 1022.1 1007.3
15 15.10 ЮЗ 1-2
{3}
10 км ясно +10.8 +10.2 96 +10 +10 1022.7 1007.6 +14.6 0.0
18 15.10 ЮЗ 2-3
{3}
20 км ясно +10.5 +8.0 84 +9 +9 1022.9 1007.8
21 15.10 Ю 2-3
{4}
20 км ясно +9.3 +7.0 86 +8 +8 1023.0 1007.8
00 16.10 Ю 1-2
{6}
10 км ясно +8.4 +6.8 90 +8 +8 1023.3 1008.1
03 16.10 Ю 1-2
{5}
10 км ясно +7.2 +6.5 95 +6 +6 1023.6 1008.3 +7.1
06 16.10 З 2-4
{4}
10 км 1/0
[Ci fib]
+10.6 +8.1 85 +9 +10 1023.2 1008.1 +6.4
09 16.10 ЮЗ 3-5
{6}
10 км 3/0
[Ci fib]
+15.9 +7.6 58 +16 +18 1022.6 1007.8
12 16.10 З 3-5
{7}
20 км 8/0
[Ci fib]
+17.1 +5.3 46 +17 +18 1021.8 1007.1
15 16.10 ЮЗ 2-3
{7}
10 км 9/0
[Ac lent Ci fib]
+11.7 +5.9 68 +11 +11 1021.7 1006.7 +17.5
18 16.10 ЮЗ 2-3
{5}
20 км ясно +8.7 +4.6 75 +7 +7 1021.0 1005.9
21 16.10 ЮЗ 2-5
{6}
20 км 3/0
[Ci fib]
+9.4 +4.6 72 +8 +8 1019.4 1004.3
00 17.10 ЮЗ 3-5
{6}
20 км 4/0
[Ci fib]
+9.0 +4.5 73 +7 +7 1018.8 1003.7
03 17.10 ЮЗ 2-4
{6}
10 км ясно +7.6 +4.5 81 +6 +6 1019.4 1004.2 +7.4
06 17.10 З 3-6
{7}
10 км 9/5 600 м
[Sc Ac trans Ci ing]
+9.1 +8 +8 1020.5 1005.4 +6.8
09 17.10 СЗ 3-6
{7}
20 км 6/4 600 м
[Sc Ac trans]
+13.5 +5.1 57 +13 +14 1021.8 1006.9
12 17.10 С 3-6
{7}
20 км 4/1 600 м
[Sc Ac trans Ci ing]
+13.8 +4.3 53 +13 +14 1023.4 1008.4
15 17.10 штиль 0
{6}
10 км ясно +7.4 +3.4 76 +7 +7 1025.5 1010.2 +14.5
18 17.10 штиль 0 10 км ясно +2.7 +1.1 89 +2 +2 1026.6 1011.1
21 17.10 ЮЗ 1-1
{2}
10 км ясно +0.4 -0.7 92 -2 -2 1027.1 1011.5
00 18.10 ЮВ 1-2
{2}
10 км 8/0
[Ac lent]
-0.4 -1.3 94 -3 -3 1027.2 1011.5
03 18.10 штиль 0
{3}
10 км 9/0
[Ac lent]
-0.5 -1.4 94 -2 -2 1026.5 1010.8 -1.6
06 18.10 ЮЗ 2-3
{3}
10 км 8/0
[Ac As]
+6.4 +3.0 79 +4 +5 1025.1 1009.8
09 18.10 ЮЗ 3-6
{7}
20 км 1/0
[Ac trans]
+13.5 +6.4 62 +12 +15 1023.4 1008.4
12 18.10 ЮЗ 2-4
{7}
20 км ясно +14.6 +7.6 63 +14 +15 1021.3 1006.5
15 18.10 Ю 2-4
{6}
20 км ясно +10.7 +7.6 81 +9 +9 1020.0 1005.0 +15.0
18 18.10 ЮЗ 3-6
{7}
10 км ясно +10.4 +7.0 79 +8 +8 1018.8 1003.8
21 18.10 ЮЗ 3-5
{6}
10 км ясно +9.6 +6.5 81 +7 +7 1018.1 1003.0
00 19.10 ЮЗ 2-4
{5}
10 км ясно +7.8 +6.1 89 +6 +6 1017.1 1002.0
03 19.10 Ю 1-2
{5}
10 км ясно +6.0 +4.9 93 +5 +5 1016.2 1001.0 +5.6
06 19.10 ЮЗ 3-5
{6}
10 км ясно +10.4 +6.4 76 +8 +9 1015.2 1000.3 +5.5
09 19.10 ЮЗ 4-7
{8}
10 км 5/0
[Ac trans]
+16.3 +8.6 60 +16 +17 1013.8 999.2
12 19.10 ЮЗ 4-7
{9}
20 км 8/4 600 м
[Cb cap Ac trans Ci fib]
+18.1 +8.6 54 +18 +18 1012.6 998.1
15 19.10 ЮЗ 2-4
{8}
10 км 8/3 600 м
[Sc Ac lent Ci fib]
+13.9 +10.9 82 +13 +13 1012.7 998.0 +19.2
18 19.10 З 2-3
{6}
10 км 9/0
[Ac lent]
+12.1 +10.4 89 +11 +11 1013.2 998.4
21 19.10 СЗ 1-2
{4}
10 км 10/10 600 м
[Sc]
+11.8 +8.4 80 +12 +12 1013.4 998.6
00 20.10 З 2-4
{5}
10 км {ливн. осадки} ясно +7.9 +5.6 85 +6 +6 1014.0 998.9
03 20.10 З 2-4
{5}
10 км ясно +5.7 +4.3 91 +3 +3 1014.7 999.5 +5.6 0.0
06 20.10 З 3-5
{6}
10 км 1/1 600 м
[Sc]
+6.4 +3.8 83 +3 +4 1015.7 1000.5 +4.6
09 20.10 З 4-6
{8}
20 км 8/8 300 м
[Frnb]
+8.6 +1.3 60 +6 +6 1016.7 1001.7
12 20.10 З 4-7
{8}
20 км 9/9 600 м
[Sc]
+7.3 -0.5 58 +4 +4 1018.2 1003.0
15 20.10 З 2-4
{9}
20 км 8/8 600 м
[Sc]
+6.4 +0.8 67 +4 +4 1019.2 1004.0 +8.9
18 20.10 ЮЗ 1-2
{4}
20 км 3/3 600 м
[Sc]
+3.2 +0.6 83 +2 +2 1020.6 1005.2
21 20.10 З 1-2
{3}
20 км 9/9 600 м
[Sc]
+4.0 +1.4 83 +3 +3 1021.3 1005.9
00 21.10 З 1-2
{4}
10 км 8/8 600 м
[Sc]
+3.8 +1.8 87 +2 +2 1022.2 1006.8

 

Местоположение метеостанции Лысково (Нижегородская область, Россия): широта 56.01 долгота 45.03 высота над уровнем моря 124 м.

В архиве по умолчанию представлена погода в Лысково за последнюю неделю. Архивные данные за месяц целиком и за предыдущие месяцы, начиная с января 2011 года, Вы можете получить, выбрав интересующий диапазон дат из раскрывающегося списка и нажав кнопку "Ввод!".


*Определитесь, кто Вы:
робот инопланетянин человек

Внимание! Время в таблицах - всемирное. Для получения местного времени необходимо прибавить поправку, которая в Лысково равна 3 ч.

Смотрите также архив погоды в соседних городах и на ближайших метеорологических станциях:

Погода в Сергаче (Нижегородская область, Россия) (61 км)
Погода в Дальнем Константиново (Нижегородская область, Россия) (64 км)
Погода в Нижнем Новгороде (Нижегородская область, Россия) (70 км)
Погода в Нижнем Новгороде аэропорт (Нижегородская область, Россия) (82 км)
Погода в Семенове (Нижегородская область, Россия) (86 км)
Погода в Воскресенском (Нижегородская область, Россия) (92 км)
Погода в Козьмодемьянске (Марий-Эл, Россия) (102 км)
Погода в Арзамасе (Нижегородская область, Россия) (106 км)
Погода в Большом Болдино (Нижегородская область, Россия) (112 км)
Погода в Лукоянове (Нижегородская область, Россия) (114 км)

Пояснения к столбцам:

Ветер - указаны скорость ветра в м/с - средняя за 10 мин, порывы в срок и между сроками (в фигурных скобках) и направление, откуда дует ветер: С - северный, СВ - северо-восточный, В - восточный, ЮВ - юго-восточный, Ю - южный, ЮЗ - юго-западный, З - западный, СЗ - северо-западный.
Видимость - горизонтальная дальность видимости в метрах или километрах. При видимости от 1 до 10 км при отсутствии осадков обычно наблюдается дымка, при ухудшении видимости до 1 км и менее - туман. В сухую погоду видимость может ухудшаться дымом, пылью или мглою.
Явления - указаны атмосферные явления, наблюдавшиеся в срок или в последний час перед сроком; фигурными скобками обозначены явления, наблюдавшиеся между сроками (за 1-3 часа до срока); квадратными скобками обозначены град или гололедные отложения с указанием их диаметра в мм.
Облачность - указаны через наклонную черту общая и нижняя облачность в баллах и высота нижней границы облаков в метрах; квадратными скобками обозначены формы облаков: Ci - перистые, Cs - перисто-слоистые, Cc - перисто-кучевые, Ac - высококучевые, As - высокослоистые, Sc - слоисто-кучевые, Ns - слоисто-дождевые, Cu - кучевые, Cb - кучево-дождевые. Подробнее классификацию облаков см. в Атласе облаков (PDF).
T - Температура воздуха - температура, измеренная на высоте 2 м над землей.
Td - Температура точки росы - температура, при понижении до которой содержащийся в воздухе водяной пар достигнет насыщения.
f - Относительная влажность воздуха - влажноcть воздуха, измеренная на высоте 2 м над землей.
Te - Эффективная температура - температура, которую ощущает одетый по сезону человек в тени. Характеристика душности погоды. При расчете учитывается влияние влажности воздуха и скорости ветра на теплоощущения человека.
Tes - Эффективная температура на солнце - температура, которую ощущает человек, с поправкой на солнечный нагрев. Характеристика знойности погоды. Зависит от высоты солнца над горизонтом, облачности и скорости ветра. Ночью, в пасмурную погоду, а также при ветре 12 м/с и более поправка равна нулю.
P - Атмосферное давление - приведенное к уровню моря атмосферное давление.
Po - Атмосферное давление - измеренное на уровне метеостанции атмосферное давление.
Tmin - Минимальная температура - минимум температуры воздуха на высоте 2 м над землей.
Tmax - Максимальная температура - максимум температуры воздуха на высоте 2 м над землей.
R - Количество осадков - Количество выпавших осадков за период времени, мм. При наведении курсора мыши на число - период времени, за который выпало указанное количество осадков.
R24 - Количество осадков - Количество выпавших осадков за 24 часа, мм.
S - Снежный покров - Высота снежного покрова, см. При наведении курсора мыши на число - состояние снежного покрова и степень покрытия местности в баллах.